EZY5615 EGNT-LTBS

Flight info

Callsign EZY5615
Flight time 3h 53m
Altitude 35000
Route GIRLI1T GIRLI P18 GASKO Y250 KEFTE UY250 MAMUL L603 DOLAS DCT NAVPI DCT DODEN DCT NEGIX DCT DINKU DCT BESNI DCT GOMIG DCT BEDOX DCT LURID DCT DOBOT DCT YULHU/N0449F370 DCT VABEK UL603 OLOTA DCT RUGAS DCT RIKSO UP14 ODNOD UT491 SONUP SONUP1D
Aircraft A320/M-SDE3FGHIRWY/LB1

Departure

Time 2026-04-25 11:54
Airport Newcastle International Airport (EGNT)

Arrival

Time 2026-04-25 15:48
Airport Dalaman International Airport (LTBS)
Time Latitude Longitude Altitude Speed Heading
2026-04-25 11:36 55.03747 -1.70839 257 ft 0 kts 185°
2026-04-25 11:46 55.03754 -1.70838 257 ft 4 kts 183°
2026-04-25 11:46 55.03781 -1.70838 256 ft 4 kts 170°
2026-04-25 11:47 55.03808 -1.70854 255 ft 4 kts 138°
2026-04-25 11:47 55.03818 -1.70880 257 ft 1 kts 101°
2026-04-25 11:47 55.03818 -1.70885 257 ft 2 kts 101°
2026-04-25 11:51 55.03814 -1.70846 255 ft 10 kts 102°
2026-04-25 11:51 55.03804 -1.70673 255 ft 19 kts 94°
2026-04-25 11:51 55.03795 -1.70475 255 ft 16 kts 106°
2026-04-25 11:51 55.03694 -1.70436 258 ft 10 kts 186°
2026-04-25 11:52 55.03640 -1.70443 261 ft 6 kts 185°
2026-04-25 11:52 55.03611 -1.70471 261 ft 5 kts 228°
2026-04-25 11:52 55.03597 -1.70518 261 ft 8 kts 254°
2026-04-25 11:52 55.03572 -1.70655 262 ft 12 kts 218°
2026-04-25 11:53 55.03480 -1.70649 261 ft 10 kts 184°
2026-04-25 11:53 55.03398 -1.70649 261 ft 11 kts 174°
2026-04-25 11:53 55.03381 -1.70530 261 ft 10 kts 62°
2026-04-25 11:53 55.03391 -1.70496 261 ft 5 kts 64°
2026-04-25 11:54 55.03469 -1.70197 260 ft 62 kts 65°
2026-04-25 11:54 55.03757 -1.69101 253 ft 126 kts 64°
2026-04-25 11:54 55.04651 -1.65803 1412 ft 147 kts 64°
2026-04-25 11:55 55.04951 -1.64635 1924 ft 150 kts 66°
2026-04-25 11:55 55.05644 -1.61922 2296 ft 183 kts 63°
2026-04-25 11:55 55.05886 -1.60994 2433 ft 190 kts 64°
2026-04-25 11:55 55.06614 -1.58081 2758 ft 218 kts 69°
2026-04-25 11:56 55.06608 -1.55186 3459 ft 227 kts 114°
2026-04-25 11:56 55.05547 -1.53065 3890 ft 245 kts 153°
2026-04-25 11:56 55.03908 -1.52288 4231 ft 263 kts 178°
2026-04-25 11:56 55.01967 -1.52311 4938 ft 270 kts 186°
2026-04-25 11:57 55.00261 -1.52611 5665 ft 272 kts 195°
2026-04-25 11:57 54.98120 -1.53186 6397 ft 282 kts 197°
2026-04-25 11:57 54.96334 -1.54228 7150 ft 278 kts 216°
2026-04-25 11:57 54.94808 -1.56031 7985 ft 271 kts 226°
2026-04-25 11:58 54.93183 -1.58232 8672 ft 280 kts 223°
2026-04-25 11:58 54.91559 -1.60199 9314 ft 286 kts 220°
2026-04-25 11:58 54.90493 -1.61312 9793 ft 289 kts 216°
2026-04-25 11:58 54.88308 -1.63187 10446 ft 299 kts 213°
2026-04-25 11:59 54.86122 -1.65204 10689 ft 323 kts 216°
2026-04-25 11:59 54.83815 -1.67588 10911 ft 345 kts 218°
2026-04-25 11:59 54.82174 -1.69434 11095 ft 358 kts 219°
2026-04-25 12:00 54.79013 -1.72983 11400 ft 381 kts 216°
2026-04-25 12:00 54.75785 -1.76261 11728 ft 399 kts 214°
2026-04-25 12:01 54.73277 -1.78636 12011 ft 409 kts 212°
2026-04-25 12:01 54.70032 -1.81027 12926 ft 404 kts 198°
2026-04-25 12:01 54.67273 -1.81644 13712 ft 404 kts 186°
2026-04-25 12:01 54.65291 -1.81662 14199 ft 403 kts 182°
2026-04-25 12:02 54.59752 -1.81569 15366 ft 401 kts 190°
2026-04-25 12:02 54.56618 -1.82572 15902 ft 402 kts 200°
2026-04-25 12:02 54.53978 -1.84124 16325 ft 404 kts 206°
2026-04-25 12:03 54.51394 -1.85988 16796 ft 406 kts 209°
2026-04-25 12:03 54.50539 -1.86654 16951 ft 407 kts 207°
2026-04-25 12:03 54.45985 -1.89241 17688 ft 413 kts 197°
2026-04-25 12:03 54.43109 -1.90115 18172 ft 414 kts 193°
2026-04-25 12:04 54.40274 -1.90837 18634 ft 415 kts 192°
2026-04-25 12:04 54.38768 -1.91193 18863 ft 416 kts 192°
2026-04-25 12:04 54.34094 -1.92269 19558 ft 416 kts 192°
2026-04-25 12:04 54.31727 -1.92797 19889 ft 419 kts 189°
2026-04-25 12:05 54.28848 -1.93515 20259 ft 422 kts 189°
2026-04-25 12:05 54.25371 -1.93978 20734 ft 426 kts 180°
2026-04-25 12:05 54.22652 -1.93569 21071 ft 430 kts 171°
2026-04-25 12:05 54.19731 -1.92215 21474 ft 433 kts 160°
2026-04-25 12:06 54.16967 -1.89936 21867 ft 437 kts 152°
2026-04-25 12:06 54.14264 -1.87235 22259 ft 439 kts 150°
2026-04-25 12:06 54.11675 -1.84540 22593 ft 442 kts 149°
2026-04-25 12:06 54.09205 -1.81921 22923 ft 444 kts 149°
2026-04-25 12:07 54.06461 -1.79003 23282 ft 447 kts 149°
2026-04-25 12:07 54.04720 -1.77163 23516 ft 448 kts 149°
2026-04-25 12:07 54.01145 -1.73417 23950 ft 451 kts 150°
2026-04-25 12:07 53.98439 -1.70604 24241 ft 453 kts 150°
2026-04-25 12:08 53.95712 -1.67787 24565 ft 454 kts 150°
2026-04-25 12:08 53.93011 -1.65015 24871 ft 455 kts 150°
2026-04-25 12:08 53.90331 -1.62275 25153 ft 456 kts 150°
2026-04-25 12:08 53.87502 -1.59383 25439 ft 458 kts 150°
2026-04-25 12:09 53.84789 -1.56605 25702 ft 459 kts 150°
2026-04-25 12:09 53.82045 -1.53797 25896 ft 463 kts 150°
2026-04-25 12:09 53.79251 -1.50943 26136 ft 465 kts 150°
2026-04-25 12:09 53.77324 -1.48976 26317 ft 466 kts 150°
2026-04-25 12:10 53.73655 -1.45234 26648 ft 468 kts 150°
2026-04-25 12:10 53.71795 -1.43337 26828 ft 469 kts 150°
2026-04-25 12:10 53.68695 -1.40186 27261 ft 467 kts 150°
2026-04-25 12:10 53.66238 -1.37701 27601 ft 465 kts 150°
2026-04-25 12:11 53.63948 -1.35385 27909 ft 464 kts 150°
2026-04-25 12:11 53.60149 -1.32015 28393 ft 461 kts 160°
2026-04-25 12:11 53.57296 -1.30443 28735 ft 458 kts 168°
2026-04-25 12:11 53.54170 -1.29532 29095 ft 456 kts 176°
2026-04-25 12:12 53.51191 -1.29124 29431 ft 455 kts 174°
2026-04-25 12:12 53.49013 -1.28408 29671 ft 456 kts 165°
2026-04-25 12:12 53.45929 -1.26332 30044 ft 458 kts 152°
2026-04-25 12:12 53.42612 -1.22230 30466 ft 460 kts 136°
2026-04-25 12:13 53.40524 -1.17920 30753 ft 462 kts 123°
2026-04-25 12:13 53.39156 -1.13311 31007 ft 464 kts 110°
2026-04-25 12:13 53.38208 -1.07882 31261 ft 465 kts 107°
2026-04-25 12:13 53.37310 -1.02775 31523 ft 465 kts 108°
2026-04-25 12:14 53.36313 -0.97412 31779 ft 465 kts 108°
2026-04-25 12:14 53.35350 -0.92378 32041 ft 465 kts 109°
2026-04-25 12:14 53.34465 -0.87774 32298 ft 465 kts 109°
2026-04-25 12:14 53.33367 -0.82002 32613 ft 465 kts 108°
2026-04-25 12:15 53.32388 -0.76797 32890 ft 465 kts 108°
2026-04-25 12:15 53.31430 -0.71672 33164 ft 464 kts 108°
2026-04-25 12:15 53.30521 -0.66796 33426 ft 464 kts 108°
2026-04-25 12:15 53.29482 -0.61238 33727 ft 464 kts 108°
2026-04-25 12:16 53.28503 -0.56020 34010 ft 464 kts 108°
2026-04-25 12:16 53.27566 -0.51053 34267 ft 463 kts 109°
2026-04-25 12:16 53.26603 -0.45962 34505 ft 463 kts 109°
2026-04-25 12:16 53.25626 -0.40810 34754 ft 462 kts 109°
2026-04-25 12:17 53.24642 -0.35657 34979 ft 462 kts 109°
2026-04-25 12:17 53.23583 -0.30117 35169 ft 462 kts 109°
2026-04-25 12:17 53.21692 -0.20216 35193 ft 465 kts 109°
2026-04-25 12:18 53.19702 -0.09830 35196 ft 466 kts 109°
2026-04-25 12:18 53.18073 -0.01408 35200 ft 466 kts 109°
2026-04-25 12:19 53.14713 0.15834 35211 ft 466 kts 109°
2026-04-25 12:20 53.12681 0.26156 35215 ft 466 kts 109°
2026-04-25 12:20 53.10673 0.36336 35222 ft 466 kts 109°
2026-04-25 12:21 53.08633 0.46643 35216 ft 466 kts 109°
2026-04-25 12:21 53.06608 0.56813 35215 ft 467 kts 109°
2026-04-25 12:22 53.04557 0.67061 35213 ft 467 kts 109°
2026-04-25 12:22 53.02494 0.77320 35218 ft 468 kts 109°
2026-04-25 12:23 53.00419 0.87571 35212 ft 468 kts 110°
2026-04-25 12:23 52.98335 0.97809 35218 ft 468 kts 110°
2026-04-25 12:24 52.96168 1.07990 35213 ft 468 kts 111°
2026-04-25 12:24 52.93852 1.18098 35208 ft 469 kts 112°
2026-04-25 12:25 52.91505 1.28197 35211 ft 469 kts 112°
2026-04-25 12:25 52.89206 1.38229 35211 ft 469 kts 111°
2026-04-25 12:26 52.86904 1.48334 35210 ft 469 kts 111°
2026-04-25 12:26 52.84960 1.56790 35203 ft 470 kts 111°
2026-04-25 12:27 52.82237 1.68541 35199 ft 471 kts 111°
2026-04-25 12:27 52.79886 1.78659 35199 ft 472 kts 111°
2026-04-25 12:28 52.77908 1.87143 35209 ft 472 kts 112°
2026-04-25 12:28 52.75533 1.97269 35212 ft 473 kts 112°
2026-04-25 12:29 52.73145 2.07378 35210 ft 473 kts 112°
2026-04-25 12:29 52.70765 2.17442 35214 ft 474 kts 112°
2026-04-25 12:30 52.68357 2.27572 35216 ft 475 kts 112°
2026-04-25 12:30 52.65935 2.37693 35220 ft 475 kts 112°
2026-04-25 12:31 52.63501 2.47809 35224 ft 475 kts 112°
2026-04-25 12:31 52.61060 2.57932 35223 ft 476 kts 112°
2026-04-25 12:32 52.58609 2.68071 35216 ft 477 kts 112°
2026-04-25 12:32 52.56137 2.78193 35219 ft 477 kts 112°
2026-04-25 12:33 52.53360 2.88094 35226 ft 477 kts 119°
2026-04-25 12:33 52.50169 2.97654 35228 ft 477 kts 120°
2026-04-25 12:34 52.46963 3.07216 35217 ft 478 kts 120°
2026-04-25 12:34 52.43744 3.16764 35218 ft 479 kts 120°
2026-04-25 12:35 52.40517 3.26303 35219 ft 479 kts 120°
2026-04-25 12:35 52.37279 3.35843 35223 ft 479 kts 120°
2026-04-25 12:36 52.34036 3.45377 35231 ft 479 kts 120°
2026-04-25 12:36 52.30800 3.54842 35228 ft 480 kts 120°
2026-04-25 12:37 52.27530 3.64381 35224 ft 481 kts 120°
2026-04-25 12:37 52.24252 3.73896 35228 ft 481 kts 120°
2026-04-25 12:38 52.20955 3.83405 35223 ft 481 kts 120°
2026-04-25 12:38 52.17656 3.92910 35233 ft 481 kts 120°
2026-04-25 12:39 52.14355 4.02403 35225 ft 482 kts 120°
2026-04-25 12:39 52.11031 4.11896 35224 ft 482 kts 120°
2026-04-25 12:40 52.07697 4.21365 35220 ft 483 kts 120°
2026-04-25 12:40 52.04356 4.30827 35223 ft 483 kts 120°
2026-04-25 12:41 52.01013 4.40287 35225 ft 483 kts 120°
2026-04-25 12:41 51.97685 4.49681 35227 ft 483 kts 120°
2026-04-25 12:42 51.94319 4.59129 35223 ft 483 kts 121°
2026-04-25 12:42 51.90942 4.68535 35227 ft 483 kts 121°
2026-04-25 12:43 51.87561 4.77926 35214 ft 482 kts 121°
2026-04-25 12:43 51.82491 4.91995 35222 ft 483 kts 120°
2026-04-25 12:44 51.79098 5.01372 35223 ft 483 kts 121°
2026-04-25 12:45 51.74002 5.15343 35223 ft 484 kts 121°
2026-04-25 12:45 51.68847 5.29416 35198 ft 484 kts 121°
2026-04-25 12:46 51.65438 5.38691 35203 ft 484 kts 121°
2026-04-25 12:46 51.62493 5.46660 35203 ft 484 kts 121°
2026-04-25 12:47 51.59754 5.54059 35204 ft 484 kts 121°
2026-04-25 12:47 51.55428 5.65689 35208 ft 485 kts 121°
2026-04-25 12:48 51.51727 5.75599 35207 ft 485 kts 121°
2026-04-25 12:48 51.48535 5.84124 35215 ft 485 kts 121°
2026-04-25 12:49 51.44734 5.94246 35213 ft 485 kts 121°
2026-04-25 12:49 51.41320 6.03299 35195 ft 486 kts 121°
2026-04-25 12:50 51.37706 6.12824 35206 ft 485 kts 121°
2026-04-25 12:50 51.34199 6.22040 35220 ft 485 kts 121°
2026-04-25 12:51 51.30702 6.31228 35212 ft 485 kts 121°
2026-04-25 12:51 51.27185 6.40414 35205 ft 486 kts 121°
2026-04-25 12:52 51.23651 6.49605 35204 ft 486 kts 121°
2026-04-25 12:52 51.20110 6.58797 35206 ft 486 kts 121°
2026-04-25 12:53 51.16558 6.67965 35217 ft 486 kts 121°
2026-04-25 12:53 51.12989 6.77139 35195 ft 486 kts 122°
2026-04-25 12:54 51.09422 6.86277 35204 ft 486 kts 122°
2026-04-25 12:54 51.06771 6.92851 35207 ft 486 kts 123°
2026-04-25 12:55 51.03653 7.00269 35208 ft 485 kts 124°
2026-04-25 12:55 50.99258 7.10605 35223 ft 485 kts 124°
2026-04-25 12:56 50.95502 7.19516 35211 ft 486 kts 123°
2026-04-25 12:56 50.91757 7.28438 35208 ft 486 kts 123°
2026-04-25 12:57 50.88001 7.37353 35202 ft 486 kts 123°
2026-04-25 12:57 50.84221 7.46268 35197 ft 487 kts 124°
2026-04-25 12:58 50.80441 7.55114 35189 ft 487 kts 124°
2026-04-25 12:58 50.76648 7.63987 35175 ft 487 kts 124°
2026-04-25 12:59 50.72840 7.72878 35158 ft 487 kts 124°
2026-04-25 12:59 50.69038 7.81729 35154 ft 487 kts 124°
2026-04-25 13:00 50.66475 7.87538 35162 ft 486 kts 126°
2026-04-25 13:00 50.61342 7.99320 35171 ft 488 kts 123°
2026-04-25 13:01 50.60789 8.00624 35170 ft 488 kts 123°
2026-04-25 13:01 50.57105 8.09283 35151 ft 487 kts 123°
2026-04-25 13:02 50.53287 8.18088 35153 ft 486 kts 124°
2026-04-25 13:02 50.50302 8.24884 35141 ft 486 kts 124°
2026-04-25 13:03 50.47368 8.31558 35141 ft 486 kts 124°
2026-04-25 13:04 50.43517 8.40290 35138 ft 486 kts 124°
2026-04-25 13:04 50.39660 8.49004 35131 ft 486 kts 124°
2026-04-25 13:05 50.35438 8.57204 35116 ft 486 kts 133°
2026-04-25 13:05 50.30820 8.64949 35109 ft 486 kts 133°
2026-04-25 13:06 50.26186 8.72681 35116 ft 486 kts 133°
2026-04-25 13:06 50.21563 8.80373 35120 ft 485 kts 133°
2026-04-25 13:07 50.16937 8.88058 35119 ft 485 kts 133°
2026-04-25 13:07 50.12315 8.95717 35119 ft 485 kts 133°
2026-04-25 13:08 50.07677 9.03377 35118 ft 485 kts 133°
2026-04-25 13:08 50.03036 9.11016 35121 ft 485 kts 133°
2026-04-25 13:09 49.98400 9.18611 35126 ft 484 kts 133°
2026-04-25 13:09 49.94533 9.24933 35122 ft 484 kts 133°
2026-04-25 13:10 49.89888 9.32515 35120 ft 484 kts 133°
2026-04-25 13:10 49.85234 9.40093 35120 ft 484 kts 133°
2026-04-25 13:11 49.80588 9.47645 35103 ft 484 kts 134°
2026-04-25 13:11 49.75933 9.55176 35130 ft 483 kts 134°
2026-04-25 13:12 49.71360 9.62548 35124 ft 483 kts 134°
2026-04-25 13:12 49.67488 9.68781 35122 ft 483 kts 134°
2026-04-25 13:13 49.62044 9.77514 35118 ft 483 kts 135°
2026-04-25 13:13 49.57321 9.84858 35126 ft 483 kts 134°
2026-04-25 13:14 49.52676 9.92347 35120 ft 483 kts 133°
2026-04-25 13:14 49.48045 9.99833 35118 ft 482 kts 134°
2026-04-25 13:15 49.43403 10.07207 35116 ft 482 kts 134°
2026-04-25 13:15 49.38689 10.14643 35114 ft 482 kts 134°
2026-04-25 13:16 49.34038 10.21978 35120 ft 482 kts 134°
2026-04-25 13:16 49.29304 10.29417 35130 ft 482 kts 134°
2026-04-25 13:17 49.24656 10.36685 35114 ft 482 kts 135°
2026-04-25 13:17 49.19920 10.43944 35131 ft 481 kts 136°
2026-04-25 13:18 49.15099 10.51056 35139 ft 481 kts 137°
2026-04-25 13:18 49.10269 10.58126 35135 ft 481 kts 137°
2026-04-25 13:19 49.05448 10.65229 35138 ft 481 kts 137°
2026-04-25 13:19 49.01452 10.71128 35132 ft 481 kts 137°
2026-04-25 13:20 48.95837 10.79398 35131 ft 480 kts 137°
2026-04-25 13:20 48.91066 10.86406 35122 ft 479 kts 137°
2026-04-25 13:21 48.86263 10.93434 35106 ft 479 kts 137°
2026-04-25 13:21 48.81447 11.00428 35107 ft 478 kts 138°
2026-04-25 13:22 48.76637 11.07410 35083 ft 478 kts 138°
2026-04-25 13:23 48.69448 11.17828 35105 ft 476 kts 138°
2026-04-25 13:23 48.64839 11.24997 35103 ft 477 kts 129°
2026-04-25 13:24 48.61470 11.33650 35093 ft 478 kts 118°
2026-04-25 13:24 48.58430 11.42594 35081 ft 479 kts 119°
2026-04-25 13:25 48.55361 11.51523 35076 ft 480 kts 119°
2026-04-25 13:25 48.52277 11.60462 35075 ft 480 kts 119°
2026-04-25 13:26 48.49209 11.69336 35077 ft 481 kts 119°
2026-04-25 13:26 48.46116 11.78271 35069 ft 481 kts 120°
2026-04-25 13:27 48.43007 11.87209 35070 ft 482 kts 120°
2026-04-25 13:27 48.39887 11.96148 35072 ft 482 kts 120°
2026-04-25 13:28 48.36765 12.05080 35076 ft 483 kts 120°
2026-04-25 13:28 48.33610 12.14067 35074 ft 483 kts 121°
2026-04-25 13:29 48.30474 12.22929 35062 ft 483 kts 121°
2026-04-25 13:29 48.27314 12.31862 35059 ft 484 kts 121°
2026-04-25 13:30 48.22555 12.45258 35057 ft 485 kts 121°
2026-04-25 13:31 48.17774 12.58640 35058 ft 486 kts 121°
2026-04-25 13:31 48.14555 12.67546 35063 ft 485 kts 124°
2026-04-25 13:32 48.10519 12.75437 35064 ft 479 kts 134°
2026-04-25 13:32 48.06189 12.83075 35066 ft 480 kts 134°
2026-04-25 13:33 48.01870 12.90702 35053 ft 481 kts 134°
2026-04-25 13:33 47.97542 12.98326 35059 ft 481 kts 134°
2026-04-25 13:34 47.93193 13.05935 35059 ft 482 kts 134°
2026-04-25 13:34 47.88840 13.13538 35050 ft 482 kts 134°
2026-04-25 13:35 47.84504 13.21078 35061 ft 481 kts 134°
2026-04-25 13:35 47.80147 13.28650 35061 ft 482 kts 134°
2026-04-25 13:36 47.75793 13.36205 35055 ft 481 kts 134°
2026-04-25 13:36 47.71408 13.43773 35057 ft 482 kts 134°
2026-04-25 13:37 47.67033 13.51302 35059 ft 482 kts 135°
2026-04-25 13:37 47.62652 13.58833 35036 ft 482 kts 134°
2026-04-25 13:38 47.58260 13.66351 35045 ft 483 kts 134°
2026-04-25 13:38 47.53860 13.73865 35071 ft 483 kts 135°
2026-04-25 13:39 47.49457 13.81368 35064 ft 483 kts 135°
2026-04-25 13:39 47.45044 13.88857 35068 ft 483 kts 135°
2026-04-25 13:40 47.41377 13.95069 35059 ft 482 kts 135°
2026-04-25 13:40 47.36248 14.03747 35063 ft 482 kts 134°
2026-04-25 13:41 47.31823 14.11200 35044 ft 481 kts 135°
2026-04-25 13:41 47.27377 14.18664 35052 ft 481 kts 135°
2026-04-25 13:42 47.22963 14.26048 35038 ft 481 kts 135°
2026-04-25 13:42 47.18559 14.33398 35025 ft 481 kts 135°
2026-04-25 13:43 47.14127 14.40779 35020 ft 481 kts 135°
2026-04-25 13:43 47.09696 14.48157 35011 ft 481 kts 135°
2026-04-25 13:44 47.05263 14.55514 35006 ft 481 kts 135°
2026-04-25 13:44 47.00818 14.62853 34995 ft 481 kts 135°
2026-04-25 13:45 46.96372 14.70169 34993 ft 480 kts 135°
2026-04-25 13:45 46.91930 14.77476 34988 ft 480 kts 135°
2026-04-25 13:46 46.87491 14.84761 34992 ft 480 kts 135°
2026-04-25 13:46 46.83031 14.92053 34985 ft 480 kts 135°
2026-04-25 13:47 46.78572 14.99317 34969 ft 480 kts 135°
2026-04-25 13:47 46.74866 15.05333 34977 ft 480 kts 135°
2026-04-25 13:48 46.70409 15.12566 34981 ft 479 kts 135°
2026-04-25 13:48 46.65221 15.20961 34983 ft 479 kts 135°
2026-04-25 13:49 46.61484 15.27004 34978 ft 480 kts 135°
2026-04-25 13:49 46.57001 15.34205 34979 ft 480 kts 135°
2026-04-25 13:50 46.52519 15.41385 34970 ft 480 kts 135°
2026-04-25 13:50 46.48041 15.48557 34981 ft 479 kts 135°
2026-04-25 13:51 46.43554 15.55720 34983 ft 479 kts 135°
2026-04-25 13:51 46.39086 15.62833 34989 ft 479 kts 135°
2026-04-25 13:52 46.34590 15.69965 34987 ft 479 kts 135°
2026-04-25 13:52 46.30086 15.77095 34992 ft 479 kts 135°
2026-04-25 13:53 46.25567 15.84197 34980 ft 479 kts 136°
2026-04-25 13:53 46.20889 15.91031 34991 ft 477 kts 139°
2026-04-25 13:54 46.16106 15.97696 34993 ft 477 kts 139°
2026-04-25 13:54 46.11336 16.04370 34997 ft 477 kts 139°
2026-04-25 13:55 46.06606 16.11092 35002 ft 477 kts 138°
2026-04-25 13:55 46.01916 16.17783 34981 ft 478 kts 138°
2026-04-25 13:56 45.97178 16.24492 34988 ft 477 kts 138°
2026-04-25 13:56 45.92433 16.31172 34999 ft 477 kts 138°
2026-04-25 13:57 45.87691 16.37832 35003 ft 477 kts 139°
2026-04-25 13:57 45.82933 16.44488 35005 ft 477 kts 139°
2026-04-25 13:58 45.78177 16.51133 35006 ft 477 kts 139°
2026-04-25 13:58 45.73417 16.57773 35002 ft 477 kts 138°
2026-04-25 13:59 45.68691 16.64347 35011 ft 476 kts 139°
2026-04-25 13:59 45.63935 16.70941 35011 ft 476 kts 138°
2026-04-25 14:00 45.59171 16.77533 35006 ft 477 kts 139°
2026-04-25 14:00 45.54404 16.84117 34999 ft 477 kts 138°
2026-04-25 14:01 45.49634 16.90706 35010 ft 477 kts 139°
2026-04-25 14:01 45.44859 16.97278 35002 ft 477 kts 138°
2026-04-25 14:02 45.40067 17.03845 35006 ft 477 kts 139°
2026-04-25 14:02 45.35295 17.10365 35011 ft 478 kts 139°
2026-04-25 14:03 45.30490 17.16905 35011 ft 478 kts 139°
2026-04-25 14:03 45.25688 17.23445 35005 ft 478 kts 138°
2026-04-25 14:04 45.20885 17.29960 35006 ft 478 kts 138°
2026-04-25 14:04 45.16064 17.36469 35009 ft 478 kts 139°
2026-04-25 14:05 45.11262 17.42994 35012 ft 478 kts 137°
2026-04-25 14:05 45.06540 17.49630 35013 ft 478 kts 137°
2026-04-25 14:06 45.01838 17.56294 35013 ft 478 kts 137°
2026-04-25 14:06 44.97145 17.62882 35003 ft 478 kts 137°
2026-04-25 14:07 44.92406 17.69470 35015 ft 478 kts 137°
2026-04-25 14:07 44.87664 17.76040 35019 ft 477 kts 137°
2026-04-25 14:08 44.82917 17.82616 35024 ft 478 kts 137°
2026-04-25 14:08 44.78173 17.89169 35021 ft 478 kts 137°
2026-04-25 14:09 44.73410 17.95720 35013 ft 477 kts 137°
2026-04-25 14:09 44.68649 18.02233 35025 ft 477 kts 137°
2026-04-25 14:10 44.63892 18.08736 35028 ft 477 kts 137°
2026-04-25 14:10 44.59139 18.15225 35024 ft 477 kts 137°
2026-04-25 14:11 44.54406 18.21655 35025 ft 476 kts 137°
2026-04-25 14:11 44.49645 18.28114 35023 ft 476 kts 137°
2026-04-25 14:12 44.44882 18.34557 35020 ft 476 kts 136°
2026-04-25 14:12 44.40119 18.40988 35023 ft 475 kts 136°
2026-04-25 14:13 44.35360 18.47405 35022 ft 475 kts 137°
2026-04-25 14:13 44.30587 18.53823 35019 ft 475 kts 135°
2026-04-25 14:14 44.26262 18.60798 35016 ft 476 kts 130°
2026-04-25 14:14 44.22004 18.67865 35018 ft 476 kts 130°
2026-04-25 14:15 44.18464 18.73718 35020 ft 475 kts 130°
2026-04-25 14:15 44.13468 18.81935 35023 ft 475 kts 130°
2026-04-25 14:16 44.09195 18.88955 35032 ft 475 kts 130°
2026-04-25 14:16 44.04918 18.95953 35032 ft 475 kts 130°
2026-04-25 14:17 44.00631 19.02946 35034 ft 475 kts 130°
2026-04-25 14:17 43.96340 19.09928 35032 ft 475 kts 130°
2026-04-25 14:18 43.92076 19.16857 35035 ft 475 kts 130°
2026-04-25 14:18 43.87785 19.23830 35033 ft 474 kts 130°
2026-04-25 14:19 43.83489 19.30781 35043 ft 474 kts 130°
2026-04-25 14:19 43.79190 19.37721 35041 ft 474 kts 130°
2026-04-25 14:20 43.74887 19.44644 35038 ft 474 kts 130°
2026-04-25 14:20 43.70581 19.51551 35039 ft 474 kts 130°
2026-04-25 14:21 43.66278 19.58453 35035 ft 473 kts 130°
2026-04-25 14:21 43.61966 19.65341 35044 ft 473 kts 130°
2026-04-25 14:22 43.57683 19.72169 35046 ft 473 kts 130°
2026-04-25 14:22 43.53370 19.79026 35044 ft 473 kts 130°
2026-04-25 14:23 43.49059 19.85865 35049 ft 473 kts 130°
2026-04-25 14:23 43.44736 19.92701 35045 ft 473 kts 130°
2026-04-25 14:24 43.40415 19.99523 35037 ft 473 kts 130°
2026-04-25 14:24 43.36093 20.06339 35047 ft 472 kts 130°
2026-04-25 14:25 43.31765 20.13138 35047 ft 472 kts 130°
2026-04-25 14:25 43.27438 20.19917 35052 ft 471 kts 130°
2026-04-25 14:26 43.23119 20.26686 35045 ft 471 kts 130°
2026-04-25 14:26 43.19522 20.32310 35041 ft 472 kts 130°
2026-04-25 14:27 43.15190 20.39060 35040 ft 472 kts 130°
2026-04-25 14:27 43.10851 20.45800 35046 ft 471 kts 130°
2026-04-25 14:28 43.06505 20.52522 35053 ft 471 kts 129°
2026-04-25 14:28 43.02170 20.59219 35050 ft 470 kts 129°
2026-04-25 14:29 42.97752 20.65744 35048 ft 471 kts 133°
2026-04-25 14:29 42.93010 20.71913 35044 ft 471 kts 136°
2026-04-25 14:30 42.88965 20.76990 35043 ft 471 kts 135°
2026-04-25 14:30 42.81054 20.87187 35047 ft 471 kts 134°
2026-04-25 14:31 42.76327 20.93368 35052 ft 471 kts 134°
2026-04-25 14:31 42.71585 20.99534 35054 ft 472 kts 134°
2026-04-25 14:32 42.66821 21.05685 35057 ft 472 kts 135°
2026-04-25 14:32 42.62051 21.11823 35061 ft 472 kts 134°
2026-04-25 14:33 42.57292 21.17945 35042 ft 472 kts 134°
2026-04-25 14:33 42.52513 21.24081 35044 ft 472 kts 134°
2026-04-25 14:34 42.47739 21.30202 35045 ft 472 kts 134°
2026-04-25 14:34 42.43001 21.36261 35038 ft 472 kts 134°
2026-04-25 14:35 42.38222 21.42348 35027 ft 472 kts 134°
2026-04-25 14:35 42.33437 21.48435 35046 ft 471 kts 134°
2026-04-25 14:36 42.28664 21.54502 35039 ft 470 kts 134°
2026-04-25 14:36 42.23891 21.60549 35036 ft 470 kts 134°
2026-04-25 14:37 42.19157 21.66637 35034 ft 469 kts 133°
2026-04-25 14:37 42.14530 21.72847 35000 ft 469 kts 132°
2026-04-25 14:38 42.09941 21.79023 35019 ft 469 kts 132°
2026-04-25 14:38 42.05287 21.85187 35026 ft 468 kts 133°
2026-04-25 14:39 42.00635 21.91308 35029 ft 468 kts 133°
2026-04-25 14:39 41.95988 21.97418 35017 ft 467 kts 133°
2026-04-25 14:40 41.91338 22.03531 35015 ft 467 kts 133°
2026-04-25 14:40 41.86693 22.09624 35018 ft 467 kts 133°
2026-04-25 14:41 41.82068 22.15670 35026 ft 466 kts 132°
2026-04-25 14:41 41.77415 22.21734 35026 ft 465 kts 133°
2026-04-25 14:42 41.73558 22.26756 35024 ft 465 kts 132°
2026-04-25 14:42 41.68134 22.33817 35020 ft 465 kts 132°
2026-04-25 14:43 41.63497 22.39841 35016 ft 465 kts 133°
2026-04-25 14:43 41.58851 22.45852 35029 ft 465 kts 133°
2026-04-25 14:44 41.54200 22.51850 35032 ft 464 kts 132°
2026-04-25 14:44 41.49563 22.57820 35030 ft 463 kts 132°
2026-04-25 14:45 41.44935 22.63774 35025 ft 462 kts 132°
2026-04-25 14:45 41.40308 22.69713 35013 ft 462 kts 133°
2026-04-25 14:46 41.35669 22.75634 35012 ft 461 kts 133°
2026-04-25 14:46 41.31251 22.81724 35018 ft 458 kts 127°
2026-04-25 14:47 41.27782 22.87128 35019 ft 458 kts 127°
2026-04-25 14:47 41.22964 22.94593 35017 ft 457 kts 127°
2026-04-25 14:48 41.18822 23.00960 35007 ft 457 kts 127°
2026-04-25 14:48 41.14661 23.07341 35005 ft 457 kts 127°
2026-04-25 14:49 41.10501 23.13723 35012 ft 457 kts 127°
2026-04-25 14:49 41.06336 23.20101 35009 ft 457 kts 127°
2026-04-25 14:50 41.02178 23.26462 35007 ft 456 kts 127°
2026-04-25 14:50 40.98019 23.32812 35019 ft 456 kts 127°
2026-04-25 14:51 40.93852 23.39138 35018 ft 455 kts 127°
2026-04-25 14:51 40.89710 23.45413 35022 ft 455 kts 127°
2026-04-25 14:52 40.85555 23.51718 35021 ft 455 kts 127°
2026-04-25 14:52 40.82096 23.56956 35018 ft 455 kts 127°
2026-04-25 14:53 40.77217 23.64304 35014 ft 455 kts 127°
2026-04-25 14:53 40.73065 23.70538 35015 ft 455 kts 127°
2026-04-25 14:54 40.68893 23.76803 35039 ft 454 kts 127°
2026-04-25 14:54 40.64726 23.83059 35040 ft 454 kts 127°
2026-04-25 14:55 40.60561 23.89302 35036 ft 453 kts 127°
2026-04-25 14:55 40.56396 23.95525 35033 ft 453 kts 127°
2026-04-25 14:56 40.52224 24.01737 35035 ft 453 kts 127°
2026-04-25 14:56 40.48048 24.07939 35037 ft 453 kts 127°
2026-04-25 14:57 40.43874 24.14136 35031 ft 453 kts 127°
2026-04-25 14:57 40.39695 24.20326 35032 ft 453 kts 128°
2026-04-25 14:58 40.35537 24.26464 35031 ft 453 kts 128°
2026-04-25 14:58 40.31347 24.32639 35036 ft 453 kts 128°
2026-04-25 14:59 40.27163 24.38806 35043 ft 453 kts 128°
2026-04-25 14:59 40.22982 24.44967 35037 ft 453 kts 128°
2026-04-25 15:00 40.18785 24.51119 35029 ft 453 kts 128°
2026-04-25 15:00 40.14578 24.57259 35020 ft 453 kts 128°
2026-04-25 15:01 40.10367 24.63389 35020 ft 453 kts 128°
2026-04-25 15:01 40.06188 24.69481 35022 ft 453 kts 128°
2026-04-25 15:02 40.01978 24.75614 35028 ft 453 kts 128°
2026-04-25 15:02 39.97757 24.81744 35025 ft 454 kts 128°
2026-04-25 15:03 39.93535 24.87865 35022 ft 454 kts 128°
2026-04-25 15:03 39.89309 24.93971 35021 ft 454 kts 128°
2026-04-25 15:04 39.85077 25.00074 35020 ft 454 kts 128°
2026-04-25 15:04 39.80847 25.06167 35014 ft 454 kts 129°
2026-04-25 15:05 39.76644 25.12213 35011 ft 453 kts 129°
2026-04-25 15:06 39.70280 25.21333 35007 ft 454 kts 129°
2026-04-25 15:06 39.66040 25.27397 35005 ft 453 kts 129°
2026-04-25 15:07 39.61790 25.33458 35014 ft 454 kts 129°
2026-04-25 15:07 39.57543 25.39504 35007 ft 454 kts 129°
2026-04-25 15:08 39.53290 25.45556 35002 ft 453 kts 129°
2026-04-25 15:08 39.49042 25.51593 35015 ft 453 kts 129°
2026-04-25 15:09 39.44808 25.57586 35010 ft 453 kts 129°
2026-04-25 15:09 39.39132 25.65595 35011 ft 453 kts 130°
2026-04-25 15:10 39.34174 25.72575 35013 ft 452 kts 130°
2026-04-25 15:11 39.28472 25.80561 35023 ft 451 kts 132°
2026-04-25 15:11 39.24219 25.86452 35016 ft 451 kts 130°
2026-04-25 15:12 39.17871 25.95442 35018 ft 451 kts 130°
2026-04-25 15:12 39.14354 26.00391 35015 ft 450 kts 130°
2026-04-25 15:13 39.07261 26.10243 35012 ft 449 kts 130°
2026-04-25 15:14 39.03043 26.16086 35006 ft 448 kts 130°
2026-04-25 15:14 38.98777 26.22006 35002 ft 448 kts 130°
2026-04-25 15:15 38.94559 26.27844 35010 ft 448 kts 130°
2026-04-25 15:15 38.90320 26.33699 35010 ft 447 kts 130°
2026-04-25 15:16 38.86148 26.39616 35010 ft 445 kts 124°
2026-04-25 15:16 38.82489 26.50309 35003 ft 436 kts 98°
2026-04-25 15:17 38.81077 26.61837 34981 ft 437 kts 98°
2026-04-25 15:18 38.80120 26.69547 34969 ft 438 kts 98°
2026-04-25 15:18 38.78666 26.81121 34974 ft 438 kts 98°
2026-04-25 15:19 38.77857 26.87536 34974 ft 438 kts 98°
2026-04-25 15:19 38.76165 26.96380 34958 ft 440 kts 112°
2026-04-25 15:20 38.72946 27.03013 34955 ft 443 kts 126°
2026-04-25 15:20 38.69234 27.09324 34960 ft 444 kts 126°
2026-04-25 15:21 38.65512 27.15658 34956 ft 445 kts 126°
2026-04-25 15:21 38.61778 27.21992 34948 ft 446 kts 128°
2026-04-25 15:22 38.58030 27.28330 34943 ft 447 kts 128°
2026-04-25 15:22 38.54272 27.34661 34944 ft 448 kts 128°
2026-04-25 15:23 38.50531 27.40965 34950 ft 448 kts 128°
2026-04-25 15:23 38.46736 27.47345 34950 ft 448 kts 127°
2026-04-25 15:24 38.42985 27.53646 34942 ft 448 kts 128°
2026-04-25 15:24 38.39821 27.58954 34944 ft 449 kts 128°
2026-04-25 15:25 38.35416 27.66314 34943 ft 449 kts 128°
2026-04-25 15:25 38.31625 27.72640 34967 ft 448 kts 128°
2026-04-25 15:26 38.27853 27.78893 34966 ft 447 kts 130°
2026-04-25 15:26 38.23215 27.84144 34968 ft 446 kts 145°
2026-04-25 15:27 38.18136 27.88672 34966 ft 446 kts 145°
2026-04-25 15:27 38.13075 27.93230 34828 ft 447 kts 145°
2026-04-25 15:28 38.10534 27.95505 34391 ft 446 kts 145°
2026-04-25 15:28 38.07997 27.97771 33991 ft 445 kts 145°
2026-04-25 15:28 38.05465 28.00030 33530 ft 444 kts 144°
2026-04-25 15:28 38.02971 28.02253 33075 ft 444 kts 144°
2026-04-25 15:29 38.00445 28.04505 32624 ft 444 kts 144°
2026-04-25 15:29 37.97907 28.06766 32169 ft 445 kts 144°
2026-04-25 15:29 37.95372 28.09021 31720 ft 445 kts 144°
2026-04-25 15:29 37.92834 28.11279 31290 ft 446 kts 144°
2026-04-25 15:30 37.90289 28.13540 30875 ft 447 kts 144°
2026-04-25 15:30 37.87739 28.15802 30455 ft 449 kts 144°
2026-04-25 15:30 37.85180 28.18071 30044 ft 450 kts 144°
2026-04-25 15:30 37.82615 28.20347 29564 ft 451 kts 144°
2026-04-25 15:31 37.80031 28.22640 29093 ft 453 kts 144°
2026-04-25 15:31 37.77449 28.24931 28605 ft 454 kts 143°
2026-04-25 15:31 37.74859 28.27226 28160 ft 455 kts 144°
2026-04-25 15:31 37.72261 28.29522 27704 ft 456 kts 144°
2026-04-25 15:32 37.69695 28.31787 27266 ft 457 kts 144°
2026-04-25 15:32 37.67049 28.34117 26817 ft 458 kts 144°
2026-04-25 15:32 37.64465 28.36392 26382 ft 459 kts 144°
2026-04-25 15:33 37.59229 28.40989 25540 ft 459 kts 144°
2026-04-25 15:33 37.56600 28.43296 25124 ft 460 kts 144°
2026-04-25 15:33 37.53964 28.45593 24583 ft 461 kts 145°
2026-04-25 15:33 37.51320 28.47881 24133 ft 461 kts 147°
2026-04-25 15:34 37.48521 28.49844 23746 ft 460 kts 154°
2026-04-25 15:34 37.45528 28.51257 23311 ft 458 kts 162°
2026-04-25 15:34 37.42453 28.52357 22844 ft 456 kts 163°
2026-04-25 15:34 37.40437 28.53070 22540 ft 454 kts 163°
2026-04-25 15:35 37.35504 28.54809 21715 ft 449 kts 163°
2026-04-25 15:35 37.33598 28.55485 21424 ft 448 kts 163°
2026-04-25 15:35 37.30607 28.56545 20988 ft 445 kts 163°
2026-04-25 15:36 37.24671 28.58637 20130 ft 440 kts 163°
2026-04-25 15:36 37.21733 28.59673 19647 ft 437 kts 163°
2026-04-25 15:36 37.18816 28.60703 19166 ft 434 kts 163°
2026-04-25 15:37 37.15880 28.61743 18682 ft 432 kts 163°
2026-04-25 15:37 37.12993 28.62768 18209 ft 429 kts 163°
2026-04-25 15:37 37.10126 28.63785 17657 ft 426 kts 168°
2026-04-25 15:37 37.07276 28.64756 17084 ft 423 kts 164°
2026-04-25 15:38 37.04485 28.65727 16515 ft 420 kts 163°
2026-04-25 15:38 37.01691 28.66719 15957 ft 416 kts 163°
2026-04-25 15:38 36.98919 28.67713 15393 ft 409 kts 163°
2026-04-25 15:38 36.96206 28.68683 14853 ft 401 kts 164°
2026-04-25 15:39 36.93545 28.69627 14318 ft 394 kts 164°
2026-04-25 15:39 36.90929 28.70548 13788 ft 387 kts 164°
2026-04-25 15:39 36.88343 28.71454 13216 ft 382 kts 164°
2026-04-25 15:39 36.85799 28.72345 12635 ft 377 kts 165°
2026-04-25 15:40 36.83292 28.73224 12072 ft 370 kts 165°
2026-04-25 15:40 36.82459 28.73518 11878 ft 368 kts 164°
2026-04-25 15:40 36.78527 28.75613 10973 ft 381 kts 143°
2026-04-25 15:40 36.76726 28.78042 10431 ft 384 kts 124°
2026-04-25 15:41 36.75701 28.81085 9900 ft 380 kts 104°
2026-04-25 15:41 36.75541 28.84346 9332 ft 375 kts 91°
2026-04-25 15:41 36.75817 28.87549 8778 ft 367 kts 87°
2026-04-25 15:41 36.76241 28.90653 8198 ft 361 kts 73°
2026-04-25 15:42 36.77454 28.93365 7658 ft 359 kts 51°
2026-04-25 15:42 36.79317 28.95394 7118 ft 353 kts 37°
2026-04-25 15:42 36.81271 28.97096 6587 ft 333 kts 36°
2026-04-25 15:42 36.83271 28.98383 6052 ft 317 kts 16°
2026-04-25 15:43 36.85406 28.98570 5515 ft 303 kts 351°
2026-04-25 15:43 36.87307 28.97647 5022 ft 289 kts 325°
2026-04-25 15:43 36.88675 28.95889 4527 ft 279 kts 303°
2026-04-25 15:43 36.89364 28.93747 4212 ft 262 kts 282°
2026-04-25 15:44 36.89409 28.91514 3928 ft 247 kts 262°
2026-04-25 15:44 36.89179 28.89460 3660 ft 239 kts 263°
2026-04-25 15:44 36.88918 28.87393 3385 ft 237 kts 255°
2026-04-25 15:44 36.88147 28.85639 3124 ft 236 kts 226°
2026-04-25 15:45 36.86799 28.84548 3005 ft 229 kts 198°
2026-04-25 15:45 36.85291 28.84023 3000 ft 223 kts 195°
2026-04-25 15:45 36.83807 28.83517 3000 ft 220 kts 195°
2026-04-25 15:45 36.83305 28.83344 3011 ft 220 kts 200°
2026-04-25 15:46 36.80936 28.82647 2690 ft 197 kts 194°
2026-04-25 15:46 36.79663 28.82227 2296 ft 181 kts 201°
2026-04-25 15:46 36.78522 28.81771 1891 ft 168 kts 200°
2026-04-25 15:46 36.77417 28.81354 1531 ft 169 kts 201°
2026-04-25 15:47 36.76266 28.80952 1081 ft 172 kts 197°
2026-04-25 15:47 36.75120 28.80555 685 ft 167 kts 200°
2026-04-25 15:47 36.74044 28.80174 363 ft 160 kts 198°
2026-04-25 15:47 36.73003 28.79831 140 ft 150 kts 199°
2026-04-25 15:48 36.72039 28.79502 30 ft 134 kts 199°
2026-04-25 15:48 36.71245 28.79227 13 ft 96 kts 195°
2026-04-25 15:48 36.70791 28.79068 13 ft 33 kts 197°
2026-04-25 15:48 36.70624 28.78937 13 ft 20 kts 223°
2026-04-25 15:49 36.70567 28.78843 13 ft 12 kts 266°
2026-04-25 15:49 36.70627 28.78805 13 ft 10 kts
2026-04-25 15:49 36.70693 28.78830 13 ft 9 kts 18°
2026-04-25 15:49 36.70752 28.78855 13 ft 9 kts 19°
2026-04-25 15:50 36.70809 28.78870 13 ft 8 kts 12°
2026-04-25 15:50 36.70843 28.78880 13 ft 8 kts 12°
2026-04-25 15:50 36.70892 28.78894 13 ft 7 kts 14°
2026-04-25 15:50 36.70942 28.78911 13 ft 9 kts 15°
2026-04-25 15:51 36.71010 28.78935 13 ft 12 kts 16°
2026-04-25 15:51 36.71071 28.78955 13 ft 15 kts 14°
2026-04-25 15:51 36.71239 28.79013 13 ft 22 kts 15°
2026-04-25 15:51 36.71408 28.79073 13 ft 28 kts 16°
2026-04-25 15:52 36.71607 28.79139 12 ft 31 kts 15°
2026-04-25 15:52 36.71800 28.79203 12 ft 15 kts 15°
2026-04-25 15:52 36.71868 28.79185 12 ft 10 kts 303°
2026-04-25 15:52 36.71886 28.79108 13 ft 9 kts 284°
2026-04-25 15:53 36.71900 28.79040 13 ft 7 kts 294°
2026-04-25 15:53 36.71941 28.79030 12 ft 6 kts 11°
2026-04-25 15:53 36.71979 28.79043 12 ft 5 kts 15°
2026-04-25 15:53 36.72013 28.79054 12 ft 5 kts 15°
2026-04-25 15:54 36.72041 28.79064 12 ft 4 kts
2026-04-25 15:54 36.72060 28.79051 13 ft 3 kts 314°
2026-04-25 15:54 36.72067 28.79033 12 ft 2 kts 291°
2026-04-25 15:54 36.72070 28.79019 12 ft 1 kts 286°
2026-04-25 15:55 36.72073 28.79009 12 ft 1 kts 286°
2026-04-25 15:55 36.72074 28.79002 12 ft 1 kts 285°
2026-04-25 15:55 36.72075 28.79000 12 ft 0 kts 285°
2026-04-25 15:56 36.72075 28.78997 12 ft 0 kts 285°
2026-04-25 15:56 36.72076 28.78993 12 ft 0 kts 285°